Wind_Speed
45 46 46 46 46 48 54 59 49 49 43 44 41 44 47 44 43 42 39 44 45 41 44 38 43 43 44 45 42 40 38 38 37 34 34 31 28 29 27 31 32 29 28 21 20 21 21 21 22
51 50 50 46 44 46 50 56 53 51 46 42 46 48 49 48 47 42 44 45 44 42 45 41 43 44 46 45 44 39 37 37 36 35 33 31 23 26 28 26 26 27 20 17 19 19 20 21 22
51 52 53 51 49 52 49 55 57 53 46 41 47 47 46 48 46 41 43 37 43 42 44 44 44 46 48 47 43 38 36 37 35 34 33 33 28 27 24 21 23 23 18 17 22 19 19 18 18
55 53 52 51 53 57 54 53 58 59 52 38 45 49 44 48 40 48 50 38 41 42 43 46 46 47 48 48 42 38 37 35 33 33 32 35 30 22 20 20 21 20 18 21 19 17 18 15 13
59 62 54 47 59 59 62 62 61 55 58 50 44 50 40 49 49 49 50 49 48 49 49 52 51 48 49 46 41 38 36 33 33 31 29 26 27 21 22 22 20 20 18 20 15 15 13 12 11
63 62 57 56 49 60 64 69 64 60 56 51 52 59 49 50 52 45 55 54 53 49 48 52 53 49 48 43 40 37 36 33 33 34 33 26 25 24 24 21 21 16 17 18 14 13 12 11 10
72 66 57 60 58 57 66 67 65 65 61 55 50 54 57 55 53 51 59 63 59 56 52 53 54 50 45 41 39 37 35 33 33 32 31 26 27 27 25 21 21 17 19 15 14 12 11 11 9
76 72 61 64 66 62 67 67 65 67 64 62 53 49 57 55 48 50 53 57 57 58 52 49 51 48 42 41 38 36 35 34 30 29 27 23 23 22 24 22 21 20 20 15 13 12 11 9 9
79 73 63 65 71 65 68 70 67 63 63 64 58 51 54 51 43 39 44 49 43 48 53 50 50 44 41 39 37 35 33 31 26 23 24 26 25 25 25 23 23 22 23 16 13 12 8 5 6
86 75 64 76 75 70 67 72 72 72 68 66 58 54 49 44 44 42 41 48 49 49 49 47 45 42 40 37 35 31 30 30 27 26 26 27 28 25 24 25 25 25 24 17 15 15 10 8 8
92 74 73 69 78 76 71 70 75 73 69 68 56 54 47 40 44 45 46 47 51 45 43 41 41 39 39 39 33 31 30 31 29 28 27 30 29 27 24 24 27 26 23 17 18 20 15 13 13
90 80 75 70 73 70 69 71 71 70 64 60 57 48 41 43 48 47 48 50 43 46 37 37 39 36 38 38 33 30 29 29 29 32 29 29 30 30 22 24 26 26 24 19 21 22 20 17 15
88 79 73 72 76 73 70 66 65 58 60 55 52 45 42 46 45 45 46 45 40 36 34 34 35 33 33 33 30 30 29 30 29 29 26 27 28 29 23 24 26 27 25 21 22 22 21 20 17
88 85 78 73 74 76 67 63 63 58 60 52 52 40 45 43 40 38 39 39 36 28 33 30 31 31 28 30 29 30 29 31 29 27 28 27 25 28 26 24 27 28 26 21 21 22 24 22 21
88 86 82 78 77 75 78 59 51 58 60 51 50 42 44 39 35 37 35 36 35 28 32 30 30 29 27 29 30 29 31 29 31 30 28 24 25 30 30 27 26 29 26 23 22 23 23 23 25
86 84 79 73 75 71 80 48 52 59 56 49 48 42 38 38 37 36 37 36 33 27 28 31 29 27 24 27 30 30 29 27 25 28 26 27 23 28 31 25 26 28 25 24 24 25 26 25 26
84 85 79 73 71 77 80 53 53 58 58 47 46 41 37 40 41 35 33 31 29 26 26 29 29 29 27 24 25 26 26 26 26 28 27 31 25 25 31 27 26 33 30 32 29 30 29 30 31
83 84 83 75 72 82 80 66 63 57 56 52 48 41 38 44 45 38 35 35 33 27 27 32 32 33 26 27 25 28 23 25 26 28 29 29 31 26 26 29 31 36 36 34 33 32 34 35 33
93 87 77 71 73 79 75 67 66 54 54 54 50 43 35 41 47 43 36 38 36 36 26 33 34 37 29 28 32 32 29 26 23 27 27 27 29 30 28 28 32 33 35 35 34 34 31 34 33
98 100 77 67 75 83 75 67 66 55 50 53 52 50 46 41 38 45 37 39 39 40 33 29 33 36 39 28 31 33 32 27 26 22 24 26 28 32 33 34 34 34 32 34 36 36 34 32 33
114 106 92 72 71 77 76 68 54 52 52 53 51 49 49 48 43 47 38 41 39 40 41 30 37 34 35 39 35 35 33 28 27 28 27 27 30 31 33 36 37 37 35 33 33 38 36 35 33
89 87 78 62 70 71 75 74 58 51 47 53 60 59 57 50 47 44 44 41 41 39 43 42 32 36 34 35 34 34 32 32 32 33 34 34 28 26 30 30 34 35 32 36 39 38 39 38 36
72 86 85 72 88 78 77 82 44 54 49 52 60 65 60 55 51 50 49 47 48 43 43 44 44 40 40 36 36 29 32 36 39 37 32 32 32 31 31 31 35 36 35 36 35 36 37 39 40
96 103 91 86 79 85 70 74 49 52 55 62 74 63 59 56 56 51 54 50 47 42 43 48 47 45 47 46 42 39 38 43 43 47 46 44 41 37 35 34 35 39 39 38 38 39 37 39 37
80 94 81 83 72 73 64 67 44 55 58 65 70 64 61 62 60 61 60 55 49 48 50 53 55 51 52 53 53 49 44 48 40 49 50 48 49 41 43 43 39 39 43 41 41 38 38 40 40
86 78 75 79 74 76 83 79 63 65 75 76 68 71 67 64 66 65 64 60 58 58 56 57 63 62 58 53 56 56 59 58 57 47 49 47 50 51 49 47 47 42 43 45 47 45 41 43 43
79 80 75 83 92 88 94 93 82 88 96 92 71 66 67 72 65 66 66 66 64 65 66 66 65 66 65 63 61 62 58 61 61 60 50 52 58 55 52 50 46 44 43 43 42 32 35 43 47
88 87 84 104 107 98 103 101 98 103 88 93 86 79 71 68 66 71 70 71 69 69 72 71 68 70 69 66 63 66 64 63 65 62 65 55 54 51 55 53 51 45 44 42 43 40 42 40 39
87 89 90 87 101 113 112 112 108 104 101 101 102 99 85 81 81 77 76 76 71 72 77 75 70 69 72 73 73 68 69 68 68 67 64 65 57 55 58 57 53 54 51 51 49 50 45 50 47
77 89 92 95 96 107 105 102 98 104 106 95 92 103 99 96 95 92 85 84 82 79 81 78 77 70 72 75 75 79 74 73 75 75 72 69 64 43 63 67 63 61 60 58 58 54 58 54 58
Wind_Direction
296 295 294 292 290 289 286 287 286 285 283 285 282 282 279 281 284 289 293 295 291 294 288 285 288 293 294 296 291 287 289 283 282 275 274 267 279 280 279 286 287 288 289 279 286 284 294 292 288
296 298 297 295 295 291 288 288 289 286 285 282 278 282 278 282 278 285 284 287 293 292 286 284 287 289 292 295 292 287 284 280 276 274 271 265 272 281 285 282 285 287 276 281 300 298 299 302 296
291 292 294 294 294 293 289 287 288 287 286 287 276 273 278 280 284 287 282 285 291 289 293 285 287 287 291 292 289 283 279 274 269 272 269 259 268 282 289 289 289 279 278 290 296 306 307 302 302
288 283 285 291 293 291 288 286 287 289 287 286 281 281 284 282 284 288 289 289 285 289 292 289 288 286 289 290 286 279 276 268 265 269 266 258 262 275 287 287 287 270 276 284 296 307 310 305 299
286 286 282 282 290 287 287 283 280 283 287 288 287 276 279 283 285 287 284 290 288 290 289 293 289 286 288 288 280 278 272 262 265 264 258 260 253 269 280 279 276 270 275 286 301 310 299 300 294
284 278 277 279 277 285 285 282 283 283 283 286 285 277 275 273 278 279 278 280 282 288 284 287 286 285 286 282 275 274 267 261 263 261 259 256 260 262 271 277 269 263 267 289 302 301 297 304 308
287 281 278 279 273 278 278 278 283 283 284 283 281 280 278 268 271 267 284 277 280 286 286 283 282 283 283 275 272 269 260 263 260 257 255 255 263 259 265 263 268 263 265 284 296 293 298 304 316
288 281 278 282 277 273 276 281 279 280 286 288 282 284 281 277 277 272 279 277 277 279 282 279 278 279 275 271 269 263 260 261 254 252 254 249 250 250 254 257 264 257 256 274 281 283 284 308 308
285 282 278 275 276 279 278 278 284 281 283 283 291 291 282 281 278 271 275 278 278 281 280 278 278 276 267 266 263 259 261 257 248 244 242 247 254 248 254 255 254 251 250 262 265 262 268 300 327
285 282 278 275 274 276 277 279 279 279 279 281 286 284 286 279 280 274 270 278 288 285 282 279 275 268 262 260 260 257 260 248 236 237 242 244 243 252 249 252 246 244 247 252 258 247 256 279 305
282 283 277 282 277 275 274 276 277 279 280 279 283 282 283 277 279 276 277 279 289 285 280 273 269 262 260 258 258 257 252 244 237 236 246 238 249 241 250 242 238 242 237 247 259 245 256 270 282
278 282 276 277 284 278 278 277 281 280 278 282 279 282 278 274 278 279 281 286 284 279 273 264 264 260 259 259 258 252 242 240 239 233 241 246 246 240 238 233 228 241 232 244 256 249 252 271 269
277 276 278 279 280 279 280 280 279 281 279 272 274 280 271 273 274 274 280 287 283 273 265 257 260 259 259 257 251 244 239 237 228 230 236 244 241 232 217 230 228 235 233 247 252 253 258 261 269
276 277 279 277 280 278 279 283 278 278 271 268 275 275 272 271 267 274 278 281 278 264 258 252 255 255 255 252 244 238 238 235 228 231 235 243 236 227 217 226 238 230 239 244 246 249 258 261 268
275 277 275 278 279 279 275 277 276 270 271 274 277 273 270 269 266 271 278 280 274 259 251 251 254 251 248 247 240 237 236 237 238 238 230 236 227 230 222 219 235 227 243 238 238 252 260 262 263
272 274 273 278 272 275 273 275 269 269 272 271 271 268 265 264 261 274 273 275 272 252 245 251 249 241 242 238 236 234 235 232 237 235 234 232 232 233 224 215 234 228 235 238 244 247 256 262 258
271 267 269 270 267 268 270 267 270 262 266 268 264 263 264 260 261 266 261 261 270 254 231 251 243 232 232 230 234 227 226 227 229 231 227 226 225 232 231 221 237 239 243 246 249 253 256 264 262
271 269 261 266 267 265 272 271 267 263 259 260 260 263 261 256 261 262 268 253 261 255 243 247 240 227 226 232 248 230 234 235 235 234 227 224 229 229 230 233 236 240 246 252 254 255 258 261 257
268 271 265 265 263 262 267 266 270 260 256 253 255 248 246 258 259 268 257 250 253 260 250 236 240 218 222 250 251 242 244 241 241 238 236 232 231 236 235 237 238 241 243 250 253 255 258 257 253
269 272 274 263 265 260 255 258 265 258 252 248 248 253 251 252 257 262 249 253 249 258 256 232 238 237 221 223 255 239 247 246 240 242 237 232 235 239 239 240 243 246 249 256 260 258 256 253 255
272 273 276 263 254 252 254 251 255 251 254 245 242 248 254 245 246 258 252 242 246 257 259 239 232 242 242 231 233 240 239 237 232 232 239 238 236 239 240 246 248 247 246 246 249 254 255 255 259
271 266 266 262 261 250 256 247 246 252 251 245 246 249 250 251 241 245 249 243 251 258 255 255 234 239 243 241 234 238 240 232 236 241 246 246 247 252 243 241 250 249 246 248 247 252 255 258 257
241 250 257 250 254 264 250 255 223 249 244 252 248 245 247 248 244 244 245 244 241 250 262 253 246 234 242 246 234 237 253 259 247 251 250 246 250 257 249 244 243 249 247 245 247 248 252 253 254
237 249 256 259 265 262 264 258 215 245 251 248 247 246 246 247 246 243 244 246 244 244 251 256 254 241 241 242 237 232 249 260 262 259 256 255 255 260 244 254 248 249 249 244 243 247 252 256 253
246 244 246 252 252 256 262 257 239 231 247 252 247 242 242 240 244 249 252 253 248 250 245 249 256 255 241 238 241 233 231 234 240 254 256 259 254 251 251 252 246 249 251 250 249 249 252 257 257
246 242 238 243 237 249 244 247 253 234 257 253 248 244 238 241 243 241 243 245 252 248 246 246 244 251 250 241 237 234 238 242 238 236 245 243 252 259 259 257 246 245 252 255 254 253 251 255 256
244 241 224 230 225 238 241 243 239 244 259 261 247 255 240 238 244 246 244 243 247 251 253 247 244 242 250 251 240 238 240 240 243 238 239 244 253 257 256 251 244 248 248 253 255 253 252 255 253
236 237 228 229 229 237 238 239 242 249 247 257 256 255 256 246 247 244 246 245 243 247 249 251 247 244 242 245 247 242 241 243 244 241 234 238 237 241 250 248 247 249 242 252 248 257 263 261 270
233 234 237 235 234 233 237 238 243 244 248 259 257 256 254 253 247 246 246 243 243 246 247 250 250 251 245 243 245 245 243 244 246 246 242 237 234 243 247 247 246 249 251 254 249 249 260 258 266
233 232 233 233 236 234 234 241 248 249 250 253 250 252 254 250 250 254 251 248 245 250 250 248 246 255 249 244 246 246 244 243 245 247 245 236 234 227 248 254 251 251 255 257 257 256 255 261 258
Height
10841 10842 10841 10842 10842 10840 10830 10821 10831 10832 10838 10839 10838 10835 10831 10831 10831 10835 10834 10831 10822 10825 10819 10821 10818 10816 10814 10812 10811 10810 10809 10807 10806 10806 10807 10809 10810 10812 10814 10815 10815 10814 10815 10815 10815 10814 10813 10812 10811
10831 10833 10833 10833 10834 10831 10825 10813 10816 10823 10827 10828 10829 10824 10820 10820 10820 10826 10826 10823 10817 10817 10812 10813 10812 10809 10807 10806 10804 10803 10802 10801 10800 10801 10802 10803 10806 10808 10810 10810 10810 10809 10811 10811 10811 10810 10808 10808 10807
10821 10823 10823 10826 10823 10820 10819 10809 10802 10809 10817 10820 10817 10815 10813 10810 10809 10816 10816 10819 10812 10809 10805 10803 10802 10801 10799 10799 10797 10796 10795 10795 10794 10794 10796 10798 10801 10803 10805 10805 10804 10805 10807 10807 10808 10806 10805 10804 10803
10811 10812 10814 10816 10815 10809 10807 10804 10796 10793 10802 10812 10809 10802 10802 10800 10808 10803 10800 10807 10804 10803 10800 10795 10793 10793 10791 10790 10789 10788 10788 10789 10789 10789 10790 10792 10796 10799 10800 10801 10801 10802 10803 10804 10804 10802 10802 10801 10801
10802 10799 10805 10805 10805 10802 10795 10792 10791 10793 10785 10795 10799 10791 10797 10792 10796 10796 10792 10791 10792 10792 10790 10786 10784 10783 10782 10781 10779 10780 10781 10782 10783 10783 10784 10787 10791 10794 10795 10797 10797 10798 10800 10800 10799 10799 10799 10798 10798
10788 10785 10793 10796 10796 10791 10786 10776 10778 10782 10783 10785 10784 10778 10783 10782 10787 10791 10781 10781 10783 10780 10781 10777 10774 10773 10772 10771 10771 10772 10773 10776 10777 10778 10780 10783 10786 10788 10790 10792 10793 10794 10796 10796 10796 10795 10795 10796 10795
10777 10775 10781 10783 10781 10780 10774 10770 10769 10767 10772 10776 10776 10772 10769 10770 10776 10783 10772 10769 10773 10770 10770 10769 10765 10764 10763 10762 10763 10764 10767 10769 10770 10772 10775 10778 10780 10783 10785 10787 10788 10790 10791 10792 10792 10792 10792 10793 10793
10762 10765 10774 10769 10764 10773 10761 10760 10760 10757 10760 10759 10765 10767 10759 10756 10766 10770 10762 10758 10763 10761 10759 10758 10755 10755 10754 10754 10755 10757 10760 10762 10764 10766 10769 10773 10774 10777 10779 10781 10783 10785 10787 10788 10789 10789 10790 10791 10791
10746 10755 10768 10755 10746 10754 10751 10747 10748 10744 10748 10749 10751 10752 10749 10750 10754 10758 10751 10746 10754 10750 10747 10746 10746 10745 10745 10745 10747 10750 10754 10756 10757 10760 10764 10767 10769 10771 10773 10776 10777 10780 10783 10784 10785 10786 10787 10788 10789
10729 10738 10755 10739 10736 10736 10736 10733 10735 10731 10736 10738 10743 10739 10741 10742 10738 10742 10747 10737 10739 10738 10737 10736 10734 10736 10736 10738 10740 10744 10747 10749 10751 10754 10757 10760 10763 10765 10768 10770 10772 10775 10778 10780 10782 10783 10784 10785 10787
10711 10730 10729 10732 10720 10719 10723 10722 10716 10721 10725 10721 10732 10729 10731 10732 10731 10730 10731 10736 10726 10728 10726 10724 10725 10727 10729 10731 10734 10737 10740 10743 10745 10748 10751 10754 10756 10759 10762 10764 10767 10770 10773 10775 10777 10780 10781 10782 10784
10693 10710 10711 10714 10708 10704 10707 10708 10708 10708 10711 10713 10711 10720 10722 10722 10722 10719 10719 10720 10724 10715 10717 10717 10717 10720 10721 10723 10728 10730 10733 10736 10739 10742 10745 10747 10750 10752 10756 10757 10761 10765 10767 10769 10772 10775 10777 10779 10780
10680 10695 10695 10697 10692 10690 10691 10698 10695 10697 10698 10698 10700 10707 10709 10710 10712 10710 10709 10708 10710 10709 10708 10710 10711 10712 10714 10716 10720 10723 10727 10729 10732 10735 10739 10740 10743 10744 10749 10753 10756 10760 10761 10764 10767 10769 10772 10774 10776
10665 10676 10684 10683 10678 10676 10678 10685 10681 10682 10676 10685 10693 10697 10698 10700 10701 10701 10699 10698 10699 10704 10698 10703 10704 10705 10708 10708 10713 10716 10720 10723 10725 10729 10733 10733 10737 10738 10743 10746 10751 10754 10756 10759 10762 10764 10766 10769 10771
10652 10657 10664 10670 10663 10661 10653 10678 10672 10662 10664 10678 10681 10686 10687 10690 10691 10691 10690 10691 10690 10695 10693 10696 10698 10699 10701 10702 10707 10710 10713 10716 10719 10723 10726 10728 10730 10732 10736 10739 10744 10748 10751 10754 10757 10758 10760 10763 10764
10631 10636 10648 10651 10642 10640 10627 10673 10657 10648 10656 10668 10669 10673 10677 10678 10680 10681 10680 10681 10682 10687 10689 10687 10691 10693 10695 10697 10700 10703 10706 10710 10712 10715 10719 10722 10724 10726 10730 10733 10738 10742 10745 10748 10751 10753 10755 10756 10758
10619 10620 10624 10630 10626 10612 10611 10654 10647 10636 10642 10655 10654 10660 10666 10667 10668 10670 10670 10673 10675 10677 10684 10679 10685 10687 10689 10692 10694 10697 10699 10702 10704 10706 10710 10715 10718 10721 10724 10728 10733 10737 10738 10742 10745 10747 10749 10750 10752
10588 10585 10601 10615 10607 10602 10599 10633 10630 10631 10630 10639 10643 10648 10653 10655 10657 10659 10662 10664 10665 10669 10676 10673 10676 10680 10682 10686 10690 10692 10694 10695 10698 10700 10703 10708 10712 10716 10720 10723 10727 10729 10732 10735 10737 10739 10742 10743 10745
10554 10561 10583 10605 10586 10580 10589 10609 10614 10618 10619 10626 10631 10634 10639 10644 10645 10651 10652 10652 10656 10659 10666 10666 10666 10672 10677 10682 10686 10687 10688 10692 10694 10697 10700 10703 10706 10709 10712 10715 10717 10721 10725 10726 10730 10732 10734 10736 10738
10533 10543 10564 10583 10564 10557 10570 10590 10599 10605 10609 10613 10617 10621 10626 10629 10635 10636 10642 10643 10645 10647 10655 10663 10659 10663 10667 10672 10677 10680 10684 10687 10691 10695 10697 10699 10699 10701 10704 10706 10709 10713 10717 10719 10721 10723 10725 10728 10731
10509 10521 10547 10544 10533 10533 10545 10572 10585 10591 10592 10598 10605 10606 10608 10616 10623 10624 10630 10633 10634 10638 10640 10653 10654 10654 10660 10665 10669 10674 10676 10680 10682 10684 10688 10691 10693 10696 10698 10700 10701 10704 10709 10711 10714 10715 10717 10720 10724
10484 10509 10517 10517 10516 10523 10519 10541 10565 10575 10581 10583 10586 10590 10595 10602 10610 10611 10617 10624 10626 10626 10630 10638 10649 10648 10650 10655 10661 10665 10669 10673 10676 10677 10680 10684 10688 10691 10693 10695 10694 10696 10701 10703 10705 10708 10710 10712 10715
10480 10474 10488 10497 10496 10501 10508 10505 10578 10556 10566 10568 10568 10566 10578 10592 10596 10598 10604 10608 10614 10620 10619 10626 10635 10642 10642 10647 10653 10660 10666 10670 10672 10671 10670 10676 10679 10682 10685 10688 10688 10687 10690 10693 10696 10698 10701 10703 10707
10446 10449 10461 10471 10478 10467 10492 10493 10543 10540 10544 10543 10536 10552 10567 10576 10578 10584 10588 10594 10603 10611 10614 10610 10618 10630 10634 10635 10642 10650 10649 10653 10658 10663 10662 10666 10667 10672 10675 10677 10679 10678 10680 10684 10687 10690 10692 10693 10696
10416 10430 10440 10449 10453 10461 10476 10466 10517 10511 10517 10516 10518 10532 10547 10555 10563 10569 10572 10579 10594 10597 10600 10600 10601 10609 10620 10625 10631 10638 10638 10644 10650 10652 10652 10652 10658 10662 10664 10666 10669 10671 10670 10673 10678 10681 10683 10684 10688
10389 10403 10416 10427 10441 10452 10458 10451 10485 10487 10486 10493 10504 10511 10528 10534 10542 10554 10560 10568 10572 10579 10582 10586 10589 10592 10600 10612 10620 10625 10625 10629 10634 10639 10643 10644 10644 10646 10651 10655 10658 10661 10661 10661 10665 10669 10672 10676 10678
10381 10375 10403 10408 10416 10423 10427 10439 10455 10460 10460 10464 10490 10497 10512 10516 10524 10534 10542 10549 10555 10555 10559 10563 10573 10579 10584 10592 10600 10606 10609 10611 10618 10624 10629 10634 10636 10637 10638 10642 10645 10649 10651 10652 10653 10658 10660 10664 10668
10335 10354 10367 10376 10386 10397 10409 10418 10422 10435 10445 10444 10464 10477 10489 10498 10505 10512 10519 10525 10532 10534 10536 10543 10554 10563 10568 10574 10582 10588 10592 10596 10598 10604 10611 10617 10622 10626 10627 10628 10631 10635 10638 10639 10642 10646 10649 10652 10655
10309 10327 10341 10355 10364 10375 10384 10391 10400 10413 10419 10428 10439 10451 10462 10471 10478 10486 10492 10499 10509 10512 10513 10523 10535 10542 10551 10557 10563 10571 10577 10580 10584 10589 10597 10602 10609 10615 10617 10616 10617 10621 10625 10628 10630 10633 10636 10639 10641
10287 10301 10315 10326 10335 10344 10354 10363 10378 10386 10397 10406 10412 10418 10436 10446 10451 10460 10470 10476 10482 10489 10492 10502 10513 10522 10529 10539 10544 10550 10558 10565 10567 10571 10576 10585 10597 10590 10591 10612 10608 10608 10611 10614 10617 10619 10622 10625 10628